Wind_Speed
51 53 55 58 60 61 64 67 70 71 69 68 70 71 74 76 78 81 85 91 96 102 107 112 115 116 112 98 85 74 68 65 67 72 77 83 90 98
53 56 58 60 62 64 67 68 70 72 73 72 73 76 79 81 85 91 97 102 107 114 118 116 109 94 76 61 52 53 53 52 51 52 53 56 58 64
56 57 60 62 64 67 69 70 72 73 75 71 76 81 85 90 95 102 108 113 118 115 104 88 75 57 51 53 48 39 43 46 48 49 49 50 52 52
57 60 63 65 67 68 70 71 72 73 75 76 80 85 92 98 103 111 117 118 104 84 68 57 46 50 48 37 40 43 41 41 44 47 50 52 53 55
59 63 65 67 68 70 71 72 73 76 79 82 86 94 100 107 113 118 111 89 71 58 48 50 48 44 37 42 39 38 39 41 44 44 45 46 48 52
62 64 66 68 69 70 72 74 77 81 86 92 96 100 108 114 117 103 78 65 50 47 46 44 40 39 40 39 35 35 38 41 39 41 47 51 51 49
63 65 68 68 69 71 75 78 83 89 94 99 104 110 116 107 86 70 59 44 44 44 43 40 37 39 40 37 36 37 40 39 40 47 46 42 39 38
65 65 67 69 71 75 80 85 91 97 103 108 112 114 92 76 64 52 42 40 35 41 38 36 40 38 39 38 36 38 39 37 40 35 30 28 25 24
64 66 68 72 76 81 86 91 97 104 109 111 100 80 68 53 44 36 39 34 37 40 37 32 36 37 38 39 36 37 35 32 24 23 26 27 30 32
64 67 71 76 82 86 90 96 102 107 100 81 69 53 44 40 37 39 35 36 36 39 43 33 36 37 37 39 35 33 31 23 22 27 28 32 34 34
66 70 75 80 86 91 96 102 103 87 69 55 46 43 42 44 42 41 39 37 34 32 40 38 37 37 37 39 34 30 27 26 27 29 30 33 30 27
70 75 81 87 92 98 101 97 78 58 45 45 47 47 44 43 44 43 43 41 39 35 43 39 36 39 30 39 33 30 26 29 28 30 34 36 32 30
73 79 86 93 98 99 90 71 49 43 46 46 46 46 46 45 46 45 45 43 40 36 38 36 32 32 33 28 33 32 27 26 28 31 37 32 31 28
79 86 92 98 95 82 60 44 46 45 45 46 47 48 48 47 47 45 42 41 40 37 33 33 30 30 30 27 25 29 27 27 28 31 30 27 26 28
85 93 97 91 71 48 44 44 44 45 47 47 47 47 46 45 44 41 37 35 32 33 32 31 31 28 27 22 19 24 22 25 27 30 25 23 23 24
92 94 84 59 40 41 42 44 46 46 45 42 40 39 38 36 35 32 27 24 25 27 32 32 32 28 23 19 18 17 20 21 26 23 20 20 23 26
89 74 49 37 38 40 43 44 43 42 41 40 38 35 34 31 29 27 25 24 24 24 26 30 33 30 21 15 16 15 16 20 23 18 18 16 23 28
64 40 31 33 37 39 40 41 41 41 40 38 36 34 32 30 29 28 26 22 22 24 27 27 27 24 20 18 8 11 17 21 19 17 17 16 21 29
31 26 28 32 34 35 36 38 40 41 39 37 35 33 31 30 27 24 22 21 24 27 29 26 24 17 14 14 9 9 14 18 17 16 15 15 19 26
21 24 27 29 30 34 37 40 42 39 38 37 35 34 33 30 27 25 25 24 26 26 26 24 21 14 10 8 9 15 17 13 13 13 11 14 19 25
18 21 22 24 28 32 37 41 42 42 38 35 35 35 34 31 28 25 22 22 21 20 19 20 17 10 6 1 7 12 10 7 9 9 14 18 22 26
16 17 18 23 28 33 38 41 43 43 40 37 36 35 33 29 25 21 21 19 18 16 18 17 11 7 3 3 8 9 8 8 7 12 15 18 20 21
13 14 18 23 29 34 39 42 42 43 42 38 36 34 32 26 26 22 23 21 16 12 14 13 8 5 4 6 10 8 5 7 10 14 15 18 21 24
Wind_Direction
292 295 296 297 298 300 301 302 301 300 301 302 301 299 298 299 299 300 300 299 298 297 296 295 294 293 292 291 288 285 281 275 271 269 266 264 263 261
295 296 298 299 300 301 301 300 302 303 303 302 301 301 301 301 302 301 300 300 300 300 300 298 296 295 293 289 285 282 280 276 276 276 276 274 273 268
297 299 300 301 302 301 302 303 304 303 303 303 303 303 304 302 301 301 300 301 302 301 299 296 295 295 290 288 286 278 276 279 278 276 275 272 271 270
299 300 301 302 302 303 304 304 303 303 304 305 305 305 303 302 302 302 303 303 302 299 297 294 295 292 290 287 284 284 286 283 284 281 279 277 276 272
301 302 302 303 304 305 305 304 305 306 306 305 306 305 304 303 303 304 304 303 300 296 292 293 296 291 291 290 289 288 288 286 284 284 282 280 278 275
302 303 304 304 305 305 306 306 306 306 307 307 306 304 305 304 304 304 302 299 296 292 294 296 294 291 292 290 291 295 293 293 293 291 291 289 286 281
303 304 304 305 306 307 307 307 308 308 307 305 304 305 306 304 304 302 298 294 295 293 293 293 288 292 292 293 293 299 301 299 297 296 295 293 289 285
304 305 306 308 308 308 309 309 309 308 307 305 305 307 306 305 302 296 293 295 293 295 297 292 291 291 292 293 294 298 299 296 299 300 306 306 302 298
306 309 310 309 310 310 310 310 310 308 308 308 307 307 307 304 298 296 298 297 299 295 292 290 290 291 290 291 295 296 294 297 296 300 304 305 305 301
310 309 310 311 311 311 309 310 310 309 308 308 309 311 310 307 305 304 301 298 299 297 291 289 292 290 290 287 289 292 291 289 285 294 296 299 298 291
309 310 311 312 312 312 312 312 311 311 310 310 312 312 311 309 307 304 304 302 301 301 295 299 294 291 292 288 287 288 279 278 288 297 303 306 299 301
311 313 313 312 313 314 313 312 312 311 309 311 312 311 311 310 308 306 304 303 301 299 296 297 296 291 287 285 281 280 269 281 290 303 309 310 305 302
312 313 314 315 316 314 313 313 313 311 312 312 312 311 309 306 304 303 304 304 304 304 300 299 294 291 289 279 281 279 272 287 299 304 310 306 305 307
312 314 315 316 315 314 313 313 313 314 314 313 312 309 307 303 301 300 300 301 301 301 301 300 298 296 294 281 274 275 282 289 297 305 305 301 308 310
315 316 316 314 314 313 314 315 315 316 315 315 314 312 310 305 301 300 299 299 301 303 305 305 303 303 298 279 268 263 266 281 296 304 304 302 310 312
316 314 313 314 313 316 318 318 320 320 319 319 318 319 318 317 314 311 307 302 304 309 312 312 311 310 305 290 280 256 273 289 299 298 302 301 311 320
314 314 315 315 319 322 324 325 324 321 320 320 320 321 323 324 322 318 313 309 306 309 313 318 318 316 311 296 285 266 283 301 310 307 301 303 314 325
316 314 316 321 326 330 331 328 326 325 323 323 322 321 320 320 320 316 316 314 310 313 317 317 320 316 313 309 266 262 295 314 318 312 304 303 316 329
316 319 324 329 337 343 345 341 334 329 327 325 325 323 322 319 317 316 314 312 315 320 319 321 322 315 307 307 296 295 316 321 323 316 319 318 323 332
322 328 334 344 354 353 351 351 349 342 334 331 329 325 322 319 314 310 305 303 309 317 322 323 326 320 313 298 306 324 333 326 332 337 335 342 342 344
330 337 346 358 356 354 354 354 355 352 345 336 331 327 325 324 322 318 310 309 311 315 324 330 327 324 324 304 313 321 322 329 347 11 5 355 350 351
338 346 358 358 356 357 356 355 356 356 351 345 340 335 328 322 319 317 310 304 304 313 326 332 336 352 28 351 335 336 321 330 339 340 351 1 8 0
345 352 357 357 357 357 357 357 358 358 356 351 346 342 338 331 323 311 310 300 298 309 331 341 6 30 38 5 358 355 317 312 325 339 1 15 14 9
Height
5671 5667 5662 5656 5651 5645 5638 5631 5624 5618 5615 5607 5597 5587 5579 5571 5565 5557 5548 5539 5530 5518 5506 5493 5479 5467 5456 5445 5435 5429 5424 5420 5417 5414 5412 5410 5410 5413
5660 5654 5649 5643 5637 5630 5623 5616 5608 5600 5594 5585 5575 5565 5556 5548 5540 5530 5520 5509 5497 5481 5467 5451 5439 5430 5423 5416 5413 5409 5405 5400 5397 5394 5392 5390 5389 5389
5647 5641 5635 5629 5622 5614 5607 5599 5591 5582 5575 5571 5558 5546 5535 5524 5514 5502 5488 5477 5462 5444 5430 5417 5412 5409 5403 5399 5395 5392 5389 5387 5383 5379 5377 5375 5373 5371
5634 5628 5621 5614 5607 5599 5591 5583 5574 5565 5557 5551 5540 5528 5513 5499 5487 5472 5457 5442 5427 5415 5405 5398 5397 5392 5387 5383 5380 5378 5376 5372 5369 5364 5361 5358 5356 5354
5621 5614 5607 5599 5591 5583 5574 5565 5556 5548 5538 5528 5522 5506 5490 5472 5458 5442 5426 5413 5402 5395 5389 5385 5384 5376 5374 5370 5367 5366 5363 5359 5354 5351 5347 5343 5339 5337
5607 5600 5593 5585 5576 5567 5557 5548 5538 5528 5518 5506 5495 5483 5464 5447 5426 5413 5403 5392 5386 5379 5377 5372 5369 5364 5362 5358 5357 5354 5349 5344 5340 5335 5331 5327 5322 5319
5594 5587 5578 5569 5560 5550 5540 5530 5519 5507 5494 5480 5466 5451 5437 5418 5401 5392 5383 5379 5375 5365 5366 5362 5357 5355 5350 5347 5345 5342 5336 5331 5327 5322 5316 5311 5307 5305
5581 5572 5563 5554 5544 5534 5523 5511 5497 5482 5468 5450 5437 5418 5405 5392 5383 5376 5371 5369 5367 5354 5354 5353 5346 5344 5340 5336 5334 5330 5325 5322 5317 5311 5305 5301 5298 5295
5566 5556 5547 5537 5527 5516 5505 5492 5476 5458 5436 5420 5407 5393 5384 5374 5370 5366 5361 5357 5353 5347 5343 5345 5338 5334 5330 5326 5324 5320 5316 5311 5307 5302 5299 5295 5291 5287
5551 5542 5532 5522 5510 5498 5486 5471 5453 5435 5414 5397 5387 5379 5370 5365 5360 5356 5351 5349 5344 5337 5330 5333 5327 5323 5320 5315 5314 5310 5306 5302 5298 5295 5291 5287 5282 5277
5538 5527 5516 5505 5492 5479 5463 5445 5428 5408 5394 5383 5376 5369 5362 5356 5349 5345 5341 5337 5334 5328 5319 5319 5315 5313 5308 5303 5303 5300 5296 5293 5290 5286 5282 5277 5271 5267
5524 5511 5498 5485 5471 5454 5436 5420 5406 5393 5384 5375 5366 5360 5353 5346 5339 5332 5328 5326 5323 5321 5309 5310 5304 5298 5301 5290 5291 5289 5287 5284 5281 5276 5271 5266 5261 5258
5507 5494 5480 5463 5446 5429 5412 5399 5389 5383 5374 5366 5358 5350 5343 5336 5329 5323 5317 5313 5310 5307 5300 5297 5294 5288 5285 5284 5278 5277 5278 5275 5271 5267 5262 5256 5251 5246
5490 5476 5459 5442 5424 5408 5397 5388 5380 5372 5364 5356 5348 5340 5333 5325 5319 5313 5307 5302 5297 5294 5292 5286 5283 5279 5276 5274 5272 5267 5266 5266 5263 5260 5254 5250 5244 5238
5470 5454 5438 5422 5408 5396 5388 5380 5371 5363 5354 5346 5337 5329 5320 5313 5307 5303 5297 5293 5289 5284 5281 5277 5273 5270 5266 5264 5264 5261 5262 5260 5255 5251 5247 5242 5238 5233
5452 5434 5417 5405 5396 5389 5380 5371 5362 5353 5345 5337 5329 5320 5312 5304 5298 5293 5290 5287 5284 5279 5272 5268 5265 5262 5258 5255 5255 5255 5254 5253 5249 5243 5240 5236 5231 5226
5431 5415 5404 5396 5389 5381 5372 5364 5355 5346 5337 5329 5321 5314 5306 5299 5293 5288 5284 5281 5278 5275 5271 5264 5257 5254 5251 5250 5248 5248 5249 5246 5240 5236 5233 5230 5225 5219
5412 5403 5397 5390 5383 5375 5366 5356 5347 5338 5330 5322 5314 5307 5301 5295 5289 5283 5279 5275 5272 5269 5265 5260 5255 5250 5245 5243 5243 5244 5242 5238 5233 5230 5227 5224 5220 5212
5402 5397 5392 5385 5378 5370 5362 5352 5343 5333 5324 5315 5308 5301 5295 5288 5284 5279 5275 5271 5268 5263 5258 5254 5250 5246 5243 5241 5240 5240 5238 5233 5230 5226 5223 5220 5216 5209
5397 5392 5387 5381 5374 5367 5358 5349 5339 5328 5319 5310 5302 5295 5288 5283 5277 5273 5269 5266 5263 5259 5254 5249 5246 5242 5240 5239 5238 5235 5232 5230 5227 5224 5221 5216 5211 5205
5394 5390 5385 5379 5372 5365 5356 5347 5336 5325 5315 5305 5297 5289 5282 5276 5271 5266 5263 5259 5257 5254 5251 5247 5243 5240 5239 5238 5237 5235 5232 5229 5227 5224 5220 5215 5208 5202
5391 5388 5383 5377 5371 5363 5354 5344 5334 5323 5311 5301 5292 5283 5276 5270 5266 5262 5258 5255 5252 5250 5248 5245 5242 5240 5239 5238 5236 5234 5230 5228 5227 5225 5221 5214 5208 5201
5389 5386 5381 5376 5369 5362 5353 5344 5333 5321 5309 5298 5288 5279 5271 5265 5259 5255 5252 5249 5249 5248 5247 5244 5242 5240 5240 5239 5236 5233 5230 5228 5227 5224 5221 5215 5208 5202